Location: Chaumontel
(49.1247°N, 2.4324°E)
Time: 01:37:36
(UTC+00:00)

IRIDIUM 103 - Pass Details

Date: 17 May 2025
Orbit: 775 x 779 km, 86.4° (Epoch: 12 June)

Event Time Altitude Azimuth Distance (km) Brightness Sun altitude
Exits shadow 00:21:02 19° 126° (SE) 1,775 5.9 -21.1°
Maximum altitude 00:23:40 30° 82° (E) 1,385 5.8 -21.0°
Drops below altitude 10° 00:28:09 10° 23° (NNE) 2,343 7.9 -20.9°
Sets 00:30:45 0° 13° (NNE) 3,275 9.2 -20.8°
